Flag for U.S.A. Weather past 2 weeks in Provo, Utah, U.S.A.

Now
73 °F

Broken clouds.


Feels Like: 75 °F
Forecast: 43 / 72 °F
Wind: 5 mph from South

Location: Provo Municipal

Current Time: Mar 31, 2015 at 3:48:32 PM

Latest Report: Mar 31, 2015 at 2:57 PM


Visibility: 15 mi

Pressure: 29.90 "Hg

Humidity: 19%

Dew point: 28 °F

Location of ProvoLocation

Historic Weather in Provo — Graph

°F

Provo temperature yesterday

Maximum temperature yesterday: 70 °F (at 4:47 PM)
Minimum temperature yesterday: 36 °F (at 6:55 AM)
Average temperature yesterday: 49 °F

Past Weeks' High & Low Weather Summary

 TemperatureHumidityPressure
High73 °F (Mar 28, 2:47 PM)100% (Mar 17, 7:52 PM)30.45 "Hg (Mar 17, 7:52 PM)
Low28 °F (Mar 26, 6:35 AM)15% (Mar 20, 4:59 PM)29.92 "Hg (Mar 17, 6:48 PM)
Average48 °F52%30.16 "Hg
* Reported Mar 16 1:49 PM — Mar 31 1:48 PM, Provo, Weather by CustomWeather, © 2015

Note: Actual official high and low records may vary slightly from our data, if they occured in-between our weather recording intervals... More about our weather records

Advertising

Provo weather history for previous 24 hours

 ConditionsComfort  
Time TempWeatherWind HumidityBarometerVisibility
1:48 PM
Tue, Mar 31
72 °FBroken clouds.5 mph19%29.94 "Hg15 mi
12:49 PM72 °FBroken clouds.3 mph22%29.97 "Hg15 mi
11:51 AM66 °FBroken clouds.No wind28%30.00 "Hg15 mi
10:50 AM66 °FBroken clouds.7 mph30%30.02 "Hg15 mi
9:54 AM57 °FScattered clouds.5 mph33%30.03 "Hg15 mi
8:51 AM48 °FScattered clouds.5 mph46%30.04 "Hg15 mi
7:49 AM43 °FClear.5 mph53%30.05 "Hg15 mi
6:49 AM39 °FClear.No wind56%30.04 "Hg15 mi
6:35 AM46 °FClear.5 mph50%30.04 "Hg10 mi
6:15 AM41 °FClear.No wind57%30.04 "Hg10 mi
5:55 AM43 °FClear.3 mph53%30.04 "Hg10 mi
5:35 AM43 °FClear.8 mph53%30.04 "Hg10 mi
5:15 AM46 °FClear.8 mph46%30.04 "Hg10 mi
4:55 AM48 °FClear.8 mph43%30.05 "Hg10 mi
4:35 AM43 °FClear.7 mph57%30.05 "Hg10 mi
4:15 AM43 °FClear.3 mph57%30.05 "Hg10 mi
3:55 AM41 °FClear.No wind57%30.05 "Hg10 mi
3:35 AM41 °FClear.No wind61%30.06 "Hg10 mi
3:15 AM43 °FClear.No wind53%30.07 "Hg10 mi
2:55 AM45 °FClear.No wind57%30.07 "Hg10 mi
2:35 AM45 °FClear.No wind53%30.08 "Hg10 mi
2:15 AM45 °FClear.No wind57%30.09 "Hg10 mi
1:55 AM46 °FClear.No wind53%30.09 "Hg10 mi
1:35 AM46 °FClear.3 mph50%30.09 "Hg10 mi
1:15 AM48 °FClear.5 mph46%30.09 "Hg10 mi
12:55 AM46 °FClear.3 mph53%30.09 "Hg10 mi
12:35 AM45 °FClear.6 mph57%30.09 "Hg10 mi
12:15 AM50 °FClear.3 mph43%30.09 "Hg10 mi
11:55 PM
Mon, Mar 30
52 °FClear.3 mph47%30.09 "Hg10 mi
11:35 PM50 °FClear.3 mph50%30.09 "Hg10 mi
11:15 PM50 °FClear.No wind54%30.09 "Hg10 mi
10:55 PM50 °FClear.No wind54%30.09 "Hg10 mi
10:35 PM52 °FClear.No wind47%30.09 "Hg10 mi
10:15 PM54 °FClear.No wind47%30.10 "Hg10 mi
9:55 PM54 °FClear.No wind47%30.09 "Hg10 mi
9:15 PM54 °FClear.3 mph35%30.10 "Hg10 mi
8:57 PM55 °FPassing clouds.5 mph36%30.09 "Hg15 mi
7:47 PM63 °FPassing clouds.5 mph25%30.08 "Hg15 mi
6:59 PM64 °FPassing clouds.5 mph30%30.09 "Hg15 mi
5:52 PM66 °FScattered clouds.5 mph21%30.10 "Hg15 mi
4:47 PM70 °FPassing clouds.5 mph18%30.12 "Hg15 mi
3:47 PM68 °FSunny.5 mph21%30.15 "Hg15 mi
Weather by CustomWeather, © 2015

See weather overviewHow to use our weather pages